Time,TemperatureF,DewpointF,PressureIn,WindDirection,WindDirectionDegrees,WindSpeedMPH,WindSpeedGustMPH,Humidity,HourlyPrecipIn,Conditions,Clouds,dailyrainin,SoftwareType,DateUTC
2013-08-25 00:01:00,68.5,57.6,29.35,East,90,0.0,0.0,68,0.00,,,0.00,VWS V14.01,2013-08-25 04:01:00,
2013-08-25 00:02:00,68.4,57.4,29.35,East,90,0.0,0.0,68,0.00,,,0.00,VWS V14.01,2013-08-25 04:02:00,
2013-08-25 00:07:00,68.4,57.4,29.35,East,90,0.0,0.0,68,0.00,,,0.00,VWS V14.01,2013-08-25 04:07:00,
2013-08-25 00:12:00,68.4,57.4,29.35,East,90,0.0,0.0,68,0.00,,,0.00,VWS V14.01,2013-08-25 04:12:00,
2013-08-25 00:17:00,68.0,57.5,29.35,East,90,0.0,0.0,69,0.00,,,0.00,VWS V14.01,2013-08-25 04:17:00,
2013-08-25 00:22:00,68.0,57.5,29.35,East,90,0.0,0.0,69,0.00,,,0.00,VWS V14.01,2013-08-25 04:22:00,
2013-08-25 00:27:00,67.8,57.3,29.35,East,90,0.0,0.0,69,0.00,,,0.00,VWS V14.01,2013-08-25 04:27:00,
2013-08-25 00:32:00,68.2,57.6,29.35,East,90,0.0,0.0,69,0.00,,,0.00,VWS V14.01,2013-08-25 04:32:00,
2013-08-25 00:37:00,68.0,57.5,29.35,East,90,0.0,0.0,69,0.00,,,0.00,VWS V14.01,2013-08-25 04:37:00,
2013-08-25 00:42:00,67.8,57.7,29.35,East,90,0.0,0.0,70,0.00,,,0.00,VWS V14.01,2013-08-25 04:42:00,
2013-08-25 00:47:00,67.8,57.7,29.35,East,90,0.0,0.0,70,0.00,,,0.00,VWS V14.01,2013-08-25 04:47:00,
2013-08-25 00:52:00,67.8,57.7,29.35,East,90,0.0,0.0,70,0.00,,,0.00,VWS V14.01,2013-08-25 04:52:00,
2013-08-25 00:57:00,67.6,57.5,29.35,East,90,0.0,0.0,70,0.00,,,0.00,VWS V14.01,2013-08-25 04:57:00,
2013-08-25 01:02:00,67.6,57.5,29.35,East,90,0.0,0.0,70,0.00,,,0.00,VWS V14.01,2013-08-25 05:02:00,
2013-08-25 01:07:00,67.5,57.3,29.35,East,90,0.0,0.0,70,0.00,,,0.00,VWS V14.01,2013-08-25 05:07:00,
2013-08-25 01:12:00,67.5,57.3,29.35,East,90,0.0,0.0,70,0.00,,,0.00,VWS V14.01,2013-08-25 05:12:00,
2013-08-25 01:17:00,67.3,57.6,29.35,East,90,0.0,0.0,71,0.00,,,0.00,VWS V14.01,2013-08-25 05:17:00,
2013-08-25 01:22:00,67.3,57.6,29.35,East,90,0.0,0.0,71,0.00,,,0.00,VWS V14.01,2013-08-25 05:22:00,
2013-08-25 01:27:00,67.3,57.6,29.32,East,90,0.0,0.0,71,0.00,,,0.00,VWS V14.01,2013-08-25 05:27:00,
2013-08-25 01:32:00,67.3,57.6,29.32,East,90,0.0,0.0,71,0.00,,,0.00,VWS V14.01,2013-08-25 05:32:00,
2013-08-25 01:37:00,67.3,57.6,29.32,East,90,0.0,0.0,71,0.00,,,0.00,VWS V14.01,2013-08-25 05:37:00,
2013-08-25 01:42:00,67.1,57.4,29.32,East,90,0.0,0.0,71,0.00,,,0.00,VWS V14.01,2013-08-25 05:42:00,
2013-08-25 01:47:00,66.6,56.9,29.32,East,90,0.0,0.0,71,0.00,,,0.00,VWS V14.01,2013-08-25 05:47:00,
2013-08-25 01:52:00,66.7,57.0,29.32,East,90,0.0,0.0,71,0.00,,,0.00,VWS V14.01,2013-08-25 05:52:00,
2013-08-25 01:57:00,66.7,57.0,29.32,East,90,0.0,0.0,71,0.00,,,0.00,VWS V14.01,2013-08-25 05:57:00,
2013-08-25 02:02:00,66.6,56.9,29.32,East,90,0.0,0.0,71,0.00,,,0.00,VWS V14.01,2013-08-25 06:02:00,
2013-08-25 02:07:00,66.6,56.9,29.32,East,90,0.0,0.0,71,0.00,,,0.00,VWS V14.01,2013-08-25 06:07:00,
2013-08-25 02:12:00,66.4,56.7,29.32,East,90,0.0,0.0,71,0.00,,,0.00,VWS V14.01,2013-08-25 06:12:00,
2013-08-25 02:17:00,66.4,56.7,29.32,East,90,0.0,0.0,71,0.00,,,0.00,VWS V14.01,2013-08-25 06:17:00,
2013-08-25 02:22:00,66.2,56.5,29.32,East,90,0.0,0.0,71,0.00,,,0.00,VWS V14.01,2013-08-25 06:22:00,
2013-08-25 02:27:00,66.2,56.9,29.32,East,90,0.0,0.0,72,0.00,,,0.00,VWS V14.01,2013-08-25 06:27:00,
2013-08-25 02:32:00,66.2,56.9,29.32,East,90,0.0,0.0,72,0.00,,,0.00,VWS V14.01,2013-08-25 06:32:00,
2013-08-25 02:37:00,66.0,56.7,29.32,East,90,0.0,0.0,72,0.00,,,0.00,VWS V14.01,2013-08-25 06:37:00,
2013-08-25 02:42:00,66.0,56.7,29.32,East,90,0.0,0.0,72,0.00,,,0.00,VWS V14.01,2013-08-25 06:42:00,
2013-08-25 02:47:00,66.0,56.7,29.32,East,90,0.0,0.0,72,0.00,,,0.00,VWS V14.01,2013-08-25 06:47:00,
2013-08-25 02:52:00,65.7,56.4,29.32,East,90,0.0,0.0,72,0.00,,,0.00,VWS V14.01,2013-08-25 06:52:00,
2013-08-25 02:57:00,65.5,56.2,29.32,East,90,0.0,0.0,72,0.00,,,0.00,VWS V14.01,2013-08-25 06:57:00,
2013-08-25 03:02:00,65.5,56.2,29.32,East,90,0.0,0.0,72,0.00,,,0.00,VWS V14.01,2013-08-25 07:02:00,
2013-08-25 03:07:00,65.7,56.4,29.32,East,90,0.0,0.0,72,0.00,,,0.00,VWS V14.01,2013-08-25 07:07:00,
2013-08-25 03:12:00,65.5,56.2,29.32,East,90,0.0,0.0,72,0.00,,,0.00,VWS V14.01,2013-08-25 07:12:00,
2013-08-25 03:17:00,65.5,56.6,29.32,East,90,0.0,0.0,73,0.00,,,0.00,VWS V14.01,2013-08-25 07:17:00,
2013-08-25 03:22:00,65.3,56.0,29.32,East,90,0.0,0.0,72,0.00,,,0.00,VWS V14.01,2013-08-25 07:22:00,
2013-08-25 03:27:00,65.3,56.0,29.32,East,90,0.0,0.0,72,0.00,,,0.00,VWS V14.01,2013-08-25 07:27:00,
2013-08-25 03:32:00,65.3,56.0,29.32,East,90,0.0,0.0,72,0.00,,,0.00,VWS V14.01,2013-08-25 07:32:00,
2013-08-25 03:37:00,65.1,55.9,29.32,East,90,0.0,0.0,72,0.00,,,0.00,VWS V14.01,2013-08-25 07:37:00,
2013-08-25 03:42:00,65.1,55.9,29.32,East,90,0.0,0.0,72,0.00,,,0.00,VWS V14.01,2013-08-25 07:42:00,
2013-08-25 03:47:00,64.8,55.9,29.32,East,90,0.0,0.0,73,0.00,,,0.00,VWS V14.01,2013-08-25 07:47:00,
2013-08-25 03:52:00,64.9,56.1,29.32,East,90,0.0,0.0,73,0.00,,,0.00,VWS V14.01,2013-08-25 07:52:00,
2013-08-25 03:57:00,64.9,56.1,29.32,East,90,0.0,0.0,73,0.00,,,0.00,VWS V14.01,2013-08-25 07:57:00,
2013-08-25 04:02:00,64.9,56.1,29.32,East,90,0.0,0.0,73,0.00,,,0.00,VWS V14.01,2013-08-25 08:02:00,
2013-08-25 04:07:00,64.8,55.9,29.32,East,90,0.0,0.0,73,0.00,,,0.00,VWS V14.01,2013-08-25 08:07:00,
2013-08-25 04:12:00,64.8,55.9,29.32,East,90,0.0,0.0,73,0.00,,,0.00,VWS V14.01,2013-08-25 08:12:00,
2013-08-25 04:17:00,64.8,55.9,29.32,East,90,0.0,0.0,73,0.00,,,0.00,VWS V14.01,2013-08-25 08:17:00,
2013-08-25 04:22:00,64.6,55.7,29.32,East,90,0.0,0.0,73,0.00,,,0.00,VWS V14.01,2013-08-25 08:22:00,
2013-08-25 04:27:00,64.4,55.6,29.32,East,90,0.0,0.0,73,0.00,,,0.00,VWS V14.01,2013-08-25 08:27:00,
2013-08-25 04:32:00,64.4,55.6,29.32,East,90,0.0,0.0,73,0.00,,,0.00,VWS V14.01,2013-08-25 08:32:00,
2013-08-25 04:37:00,64.4,55.6,29.32,East,90,0.0,0.0,73,0.00,,,0.00,VWS V14.01,2013-08-25 08:37:00,
2013-08-25 04:42:00,64.4,55.6,29.32,East,90,0.0,0.0,73,0.00,,,0.00,VWS V14.01,2013-08-25 08:42:00,
2013-08-25 04:47:00,64.4,55.6,29.32,East,90,0.0,0.0,73,0.00,,,0.00,VWS V14.01,2013-08-25 08:47:00,
2013-08-25 04:52:00,64.2,55.4,29.32,East,90,0.0,0.0,73,0.00,,,0.00,VWS V14.01,2013-08-25 08:52:00,
2013-08-25 04:57:00,64.0,55.2,29.32,East,90,0.0,0.0,73,0.00,,,0.00,VWS V14.01,2013-08-25 08:57:00,
2013-08-25 05:02:00,63.9,55.4,29.32,East,90,0.0,0.0,74,0.00,,,0.00,VWS V14.01,2013-08-25 09:02:00,
2013-08-25 05:07:00,63.7,55.2,29.32,East,90,0.0,0.0,74,0.00,,,0.00,VWS V14.01,2013-08-25 09:07:00,
2013-08-25 05:12:00,63.5,55.1,29.32,East,90,0.0,0.0,74,0.00,,,0.00,VWS V14.01,2013-08-25 09:12:00,
2013-08-25 05:17:00,63.7,55.2,29.32,East,90,0.0,0.0,74,0.00,,,0.00,VWS V14.01,2013-08-25 09:17:00,
2013-08-25 05:22:00,63.5,55.1,29.32,East,90,0.0,0.0,74,0.00,,,0.00,VWS V14.01,2013-08-25 09:22:00,
2013-08-25 05:27:00,63.5,55.1,29.32,East,90,0.0,0.0,74,0.00,,,0.00,VWS V14.01,2013-08-25 09:27:00,
2013-08-25 05:32:00,63.5,54.7,29.32,East,90,0.0,0.0,73,0.00,,,0.00,VWS V14.01,2013-08-25 09:32:00,
2013-08-25 05:37:00,63.3,54.9,29.32,East,90,0.0,0.0,74,0.00,,,0.00,VWS V14.01,2013-08-25 09:37:00,
2013-08-25 05:42:00,63.3,54.9,29.35,East,90,0.0,0.0,74,0.00,,,0.00,VWS V14.01,2013-08-25 09:42:00,
2013-08-25 05:47:00,63.3,54.9,29.35,East,90,0.0,0.0,74,0.00,,,0.00,VWS V14.01,2013-08-25 09:47:00,
2013-08-25 05:52:00,63.1,54.7,29.35,East,90,0.0,0.0,74,0.00,,,0.00,VWS V14.01,2013-08-25 09:52:00,
2013-08-25 05:57:00,63.1,54.7,29.35,East,90,0.0,0.0,74,0.00,,,0.00,VWS V14.01,2013-08-25 09:57:00,
2013-08-25 06:02:00,62.8,54.4,29.35,East,90,0.0,0.0,74,0.00,,,0.00,VWS V14.01,2013-08-25 10:02:00,
2013-08-25 06:07:00,62.8,54.4,29.35,East,90,0.0,0.0,74,0.00,,,0.00,VWS V14.01,2013-08-25 10:07:00,
2013-08-25 06:12:00,62.8,54.4,29.35,East,90,0.0,0.0,74,0.00,,,0.00,VWS V14.01,2013-08-25 10:12:00,
2013-08-25 06:17:00,63.0,54.5,29.35,East,90,0.0,0.0,74,0.00,,,0.00,VWS V14.01,2013-08-25 10:17:00,
2013-08-25 06:22:00,62.8,54.4,29.35,East,90,0.0,0.0,74,0.00,,,0.00,VWS V14.01,2013-08-25 10:22:00,
2013-08-25 06:26:00,62.8,54.4,29.35,East,90,0.0,0.0,74,0.00,,,0.00,VWS V14.01,2013-08-25 10:26:00,
2013-08-25 06:31:00,62.8,54.4,29.35,East,90,0.0,0.0,74,0.00,,,0.00,VWS V14.01,2013-08-25 10:31:00,
2013-08-25 06:36:00,62.6,54.2,29.35,East,90,0.0,0.0,74,0.00,,,0.00,VWS V14.01,2013-08-25 10:36:00,
2013-08-25 06:41:00,62.8,54.4,29.35,East,90,0.0,0.0,74,0.00,,,0.00,VWS V14.01,2013-08-25 10:41:00,
2013-08-25 06:46:00,62.6,54.2,29.35,East,90,0.0,0.0,74,0.00,,,0.00,VWS V14.01,2013-08-25 10:46:00,
2013-08-25 06:51:00,62.4,54.4,29.35,East,90,0.0,0.0,75,0.00,,,0.00,VWS V14.01,2013-08-25 10:51:00,
2013-08-25 06:56:00,62.2,54.2,29.35,East,90,0.0,0.0,75,0.00,,,0.00,VWS V14.01,2013-08-25 10:56:00,
2013-08-25 07:01:00,62.2,53.9,29.35,East,90,0.0,0.0,74,0.00,,,0.00,VWS V14.01,2013-08-25 11:01:00,
2013-08-25 07:06:00,62.2,54.2,29.35,East,90,0.0,0.0,75,0.00,,,0.00,VWS V14.01,2013-08-25 11:06:00,
2013-08-25 07:11:00,62.2,54.2,29.35,East,90,0.0,0.0,75,0.00,,,0.00,VWS V14.01,2013-08-25 11:11:00,
2013-08-25 07:16:00,62.2,54.2,29.35,East,90,0.0,0.0,75,0.00,,,0.00,VWS V14.01,2013-08-25 11:16:00,
2013-08-25 07:21:00,62.2,54.2,29.35,East,90,0.0,0.0,75,0.00,,,0.00,VWS V14.01,2013-08-25 11:21:00,
2013-08-25 07:26:00,62.1,54.0,29.38,East,90,0.0,0.0,75,0.00,,,0.00,VWS V14.01,2013-08-25 11:26:00,
2013-08-25 07:31:00,62.1,54.0,29.38,East,90,0.0,0.0,75,0.00,,,0.00,VWS V14.01,2013-08-25 11:31:00,
2013-08-25 07:36:00,62.1,54.0,29.38,East,90,0.0,0.0,75,0.00,,,0.00,VWS V14.01,2013-08-25 11:36:00,
2013-08-25 07:41:00,62.1,54.4,29.35,East,90,0.0,0.0,76,0.00,,,0.00,VWS V14.01,2013-08-25 11:41:00,
2013-08-25 07:46:00,62.1,54.4,29.35,East,90,0.0,0.0,76,0.00,,,0.00,VWS V14.01,2013-08-25 11:46:00,
2013-08-25 07:51:00,62.1,54.4,29.35,East,90,0.0,0.0,76,0.00,,,0.00,VWS V14.01,2013-08-25 11:51:00,
2013-08-25 07:56:00,62.1,54.8,29.38,East,90,0.0,0.0,77,0.00,,,0.00,VWS V14.01,2013-08-25 11:56:00,
2013-08-25 08:01:00,62.2,55.0,29.38,East,90,0.0,0.0,77,0.00,,,0.00,VWS V14.01,2013-08-25 12:01:00,
2013-08-25 08:06:00,62.2,55.0,29.38,East,90,0.0,0.0,77,0.00,,,0.00,VWS V14.01,2013-08-25 12:06:00,
2013-08-25 08:11:00,62.4,55.1,29.38,East,90,0.0,0.0,77,0.00,,,0.00,VWS V14.01,2013-08-25 12:11:00,
2013-08-25 08:16:00,62.4,55.5,29.38,East,90,0.0,0.0,78,0.00,,,0.00,VWS V14.01,2013-08-25 12:16:00,
2013-08-25 08:21:00,62.6,55.7,29.38,East,90,0.0,0.0,78,0.00,,,0.00,VWS V14.01,2013-08-25 12:21:00,
2013-08-25 08:26:00,62.6,55.7,29.38,East,90,0.0,0.0,78,0.00,,,0.00,VWS V14.01,2013-08-25 12:26:00,
2013-08-25 08:31:00,62.8,55.8,29.38,East,90,0.0,0.0,78,0.00,,,0.00,VWS V14.01,2013-08-25 12:31:00,
2013-08-25 08:36:00,63.0,56.3,29.38,East,90,0.0,0.0,79,0.00,,,0.00,VWS V14.01,2013-08-25 12:36:00,
2013-08-25 08:41:00,63.1,56.5,29.38,East,90,0.0,0.0,79,0.00,,,0.00,VWS V14.01,2013-08-25 12:41:00,
2013-08-25 08:46:00,63.1,56.5,29.38,East,90,0.0,0.0,79,0.00,,,0.00,VWS V14.01,2013-08-25 12:46:00,
2013-08-25 08:51:00,63.3,56.7,29.38,East,90,0.0,0.0,79,0.00,,,0.00,VWS V14.01,2013-08-25 12:51:00,
2013-08-25 08:56:00,63.5,57.2,29.35,East,90,0.0,0.0,80,0.00,,,0.00,VWS V14.01,2013-08-25 12:56:00,
2013-08-25 09:01:00,63.7,57.4,29.35,East,90,0.0,0.0,80,0.00,,,0.00,VWS V14.01,2013-08-25 13:01:00,
2013-08-25 09:06:00,63.7,57.4,29.35,East,90,0.0,0.0,80,0.00,,,0.00,VWS V14.01,2013-08-25 13:06:00,
2013-08-25 09:11:00,64.0,57.8,29.38,East,90,0.0,0.0,80,0.00,,,0.00,VWS V14.01,2013-08-25 13:11:00,
2013-08-25 09:16:00,64.2,57.9,29.38,East,90,0.0,0.0,80,0.00,,,0.00,VWS V14.01,2013-08-25 13:16:00,
2013-08-25 09:21:00,64.4,58.1,29.38,East,90,0.0,0.0,80,0.00,,,0.00,VWS V14.01,2013-08-25 13:21:00,
2013-08-25 09:26:00,64.6,58.3,29.38,East,90,0.0,0.0,80,0.00,,,0.00,VWS V14.01,2013-08-25 13:26:00,
2013-08-25 09:31:00,64.9,58.6,29.38,East,90,0.0,0.0,80,0.00,,,0.00,VWS V14.01,2013-08-25 13:31:00,
2013-08-25 09:36:00,65.3,59.0,29.38,East,90,0.0,0.0,80,0.00,,,0.00,VWS V14.01,2013-08-25 13:36:00,
2013-08-25 09:41:00,65.5,59.2,29.38,East,90,0.0,0.0,80,0.00,,,0.00,VWS V14.01,2013-08-25 13:41:00,
2013-08-25 09:46:00,65.8,59.5,29.38,East,90,0.0,0.0,80,0.00,,,0.00,VWS V14.01,2013-08-25 13:46:00,
2013-08-25 09:51:00,66.0,59.7,29.38,East,90,0.0,0.0,80,0.00,,,0.00,VWS V14.01,2013-08-25 13:51:00,
2013-08-25 09:56:00,66.4,60.0,29.38,East,90,0.0,0.0,80,0.00,,,0.00,VWS V14.01,2013-08-25 13:56:00,
2013-08-25 10:01:00,66.6,59.8,29.38,East,90,0.0,0.0,79,0.00,,,0.00,VWS V14.01,2013-08-25 14:01:00,
2013-08-25 10:06:00,66.7,60.0,29.38,East,90,0.0,0.0,79,0.00,,,0.00,VWS V14.01,2013-08-25 14:06:00,
2013-08-25 10:11:00,67.1,60.4,29.35,East,90,0.0,0.0,79,0.00,,,0.00,VWS V14.01,2013-08-25 14:11:00,
2013-08-25 10:16:00,67.3,60.5,29.35,East,90,0.0,0.0,79,0.00,,,0.00,VWS V14.01,2013-08-25 14:16:00,
2013-08-25 10:21:00,67.8,61.1,29.35,East,90,0.0,0.0,79,0.00,,,0.00,VWS V14.01,2013-08-25 14:21:00,
2013-08-25 10:26:00,68.5,61.0,29.38,East,90,1.6,1.6,77,0.00,,,0.00,VWS V14.01,2013-08-25 14:26:00,
2013-08-25 10:31:00,68.9,60.7,29.38,East,90,0.0,0.0,75,0.00,,,0.00,VWS V14.01,2013-08-25 14:31:00,
2013-08-25 10:36:00,68.9,60.7,29.38,East,90,0.0,0.0,75,0.00,,,0.00,VWS V14.01,2013-08-25 14:36:00,
2013-08-25 10:41:00,69.3,60.6,29.38,East,90,0.0,0.0,74,0.00,,,0.00,VWS V14.01,2013-08-25 14:41:00,
2013-08-25 10:46:00,69.3,60.6,29.38,East,90,0.0,0.0,74,0.00,,,0.00,VWS V14.01,2013-08-25 14:46:00,
2013-08-25 10:51:00,69.8,60.8,29.38,East,90,0.0,0.0,73,0.00,,,0.00,VWS V14.01,2013-08-25 14:51:00,
2013-08-25 10:56:00,69.6,60.6,29.38,East,90,0.0,0.0,73,0.00,,,0.00,VWS V14.01,2013-08-25 14:56:00,
2013-08-25 11:01:00,70.5,61.5,29.38,East,90,0.0,0.0,73,0.00,,,0.00,VWS V14.01,2013-08-25 15:01:00,
2013-08-25 11:06:00,70.5,60.7,29.38,NW,315,1.1,2.0,71,0.00,,,0.00,VWS V14.01,2013-08-25 15:06:00,
2013-08-25 11:11:00,71.1,61.6,29.38,NW,315,0.0,0.9,72,0.00,,,0.00,VWS V14.01,2013-08-25 15:11:00,
2013-08-25 11:16:00,71.1,61.2,29.38,NW,315,0.0,0.0,71,0.00,,,0.00,VWS V14.01,2013-08-25 15:16:00,
2013-08-25 11:21:00,71.6,61.7,29.38,West,270,0.0,0.0,71,0.00,,,0.00,VWS V14.01,2013-08-25 15:21:00,
2013-08-25 11:26:00,71.8,61.1,29.35,NW,315,1.1,1.3,69,0.00,,,0.00,VWS V14.01,2013-08-25 15:26:00,
2013-08-25 11:31:00,72.5,61.8,29.35,SW,225,0.0,0.0,69,0.00,,,0.00,VWS V14.01,2013-08-25 15:31:00,
2013-08-25 11:36:00,72.9,61.7,29.35,WNW,292,0.0,0.0,68,0.00,,,0.00,VWS V14.01,2013-08-25 15:36:00,
2013-08-25 11:41:00,72.7,61.1,29.35,NNW,338,1.1,1.1,67,0.00,,,0.00,VWS V14.01,2013-08-25 15:41:00,
2013-08-25 11:46:00,73.4,61.4,29.35,SSW,202,0.0,0.0,66,0.00,,,0.00,VWS V14.01,2013-08-25 15:46:00,
2013-08-25 11:51:00,74.1,61.2,29.35,South,180,1.3,1.3,64,0.00,,,0.00,VWS V14.01,2013-08-25 15:51:00,
2013-08-25 11:56:00,74.5,61.5,29.35,South,180,0.0,0.0,64,0.00,,,0.00,VWS V14.01,2013-08-25 15:56:00,
2013-08-25 12:01:00,74.5,60.2,29.35,South,180,0.0,0.0,61,0.00,,,0.00,VWS V14.01,2013-08-25 16:01:00,
2013-08-25 12:06:00,75.2,58.4,29.35,South,180,0.9,1.3,56,0.00,,,0.00,VWS V14.01,2013-08-25 16:06:00,
2013-08-25 12:11:00,75.4,58.6,29.35,SSE,158,1.3,2.0,56,0.00,,,0.00,VWS V14.01,2013-08-25 16:11:00,
2013-08-25 12:16:00,75.7,56.9,29.35,SE,135,0.0,0.0,52,0.00,,,0.00,VWS V14.01,2013-08-25 16:16:00,
2013-08-25 12:21:00,76.1,53.2,29.35,South,180,2.5,2.5,45,0.00,,,0.00,VWS V14.01,2013-08-25 16:21:00,
2013-08-25 12:26:00,76.3,54.6,29.38,South,180,0.0,0.0,47,0.00,,,0.00,VWS V14.01,2013-08-25 16:26:00,
2013-08-25 12:31:00,76.3,56.8,29.38,SSE,158,0.0,0.0,51,0.00,,,0.00,VWS V14.01,2013-08-25 16:31:00,
2013-08-25 12:36:00,76.8,54.5,29.38,South,180,1.1,1.3,46,0.00,,,0.00,VWS V14.01,2013-08-25 16:36:00,
2013-08-25 12:41:00,77.0,55.2,29.35,South,180,0.0,0.0,47,0.00,,,0.00,VWS V14.01,2013-08-25 16:41:00,
2013-08-25 12:46:00,76.8,57.9,29.35,SSW,202,0.0,0.0,52,0.00,,,0.00,VWS V14.01,2013-08-25 16:46:00,
2013-08-25 12:51:00,77.2,55.4,29.35,South,180,2.0,2.2,47,0.00,,,0.00,VWS V14.01,2013-08-25 16:51:00,
2013-08-25 12:56:00,77.4,57.3,29.35,NNW,338,0.0,0.0,50,0.00,,,0.00,VWS V14.01,2013-08-25 16:56:00,
2013-08-25 13:01:00,77.4,56.7,29.35,SE,135,0.0,0.0,49,0.00,,,0.00,VWS V14.01,2013-08-25 17:01:00,
2013-08-25 13:06:00,77.5,57.5,29.35,NE,45,0.0,0.0,50,0.00,,,0.00,VWS V14.01,2013-08-25 17:06:00,
2013-08-25 13:11:00,78.1,55.0,29.35,South,180,1.3,2.0,45,0.00,,,0.00,VWS V14.01,2013-08-25 17:11:00,
2013-08-25 13:16:00,78.3,54.0,29.35,SSW,202,1.3,1.6,43,0.00,,,0.00,VWS V14.01,2013-08-25 17:16:00,
2013-08-25 13:21:00,78.3,55.8,29.35,WNW,292,0.0,0.0,46,0.00,,,0.00,VWS V14.01,2013-08-25 17:21:00,
2013-08-25 13:26:00,78.1,56.2,29.35,NW,315,2.2,2.5,47,0.00,,,0.00,VWS V14.01,2013-08-25 17:26:00,
2013-08-25 13:31:00,78.4,55.4,29.35,NW,315,0.0,0.0,45,0.00,,,0.00,VWS V14.01,2013-08-25 17:31:00,
2013-08-25 13:36:00,78.4,56.6,29.35,NW,315,2.7,2.7,47,0.00,,,0.00,VWS V14.01,2013-08-25 17:36:00,
2013-08-25 13:41:00,78.6,57.3,29.35,NW,315,2.0,2.0,48,0.00,,,0.00,VWS V14.01,2013-08-25 17:41:00,
2013-08-25 13:46:00,79.0,54.6,29.35,SW,225,1.6,1.6,43,0.00,,,0.00,VWS V14.01,2013-08-25 17:46:00,
2013-08-25 13:51:00,79.2,55.4,29.35,NW,315,2.0,2.0,44,0.00,,,0.00,VWS V14.01,2013-08-25 17:51:00,
2013-08-25 13:56:00,79.0,56.5,29.35,NW,315,0.0,0.0,46,0.00,,,0.00,VWS V14.01,2013-08-25 17:56:00,
2013-08-25 14:01:00,79.2,54.8,29.35,WNW,292,2.0,2.0,43,0.00,,,0.00,VWS V14.01,2013-08-25 18:01:00,
2013-08-25 14:06:00,79.5,56.3,29.35,West,270,2.2,2.7,45,0.00,,,0.00,VWS V14.01,2013-08-25 18:06:00,
2013-08-25 14:11:00,79.5,56.3,29.35,NW,315,3.1,3.1,45,0.00,,,0.00,VWS V14.01,2013-08-25 18:11:00,
2013-08-25 14:16:00,79.5,56.3,29.35,North,0,3.4,3.4,45,0.00,,,0.00,VWS V14.01,2013-08-25 18:16:00,
2013-08-25 14:21:00,79.7,55.9,29.35,West,270,1.3,1.3,44,0.00,,,0.00,VWS V14.01,2013-08-25 18:21:00,
2013-08-25 14:26:00,80.1,56.2,29.38,WNW,292,1.1,2.9,44,0.00,,,0.00,VWS V14.01,2013-08-25 18:26:00,
2013-08-25 14:31:00,80.1,56.2,29.38,NW,315,0.0,0.0,44,0.00,,,0.00,VWS V14.01,2013-08-25 18:31:00,
2013-08-25 14:36:00,80.1,56.2,29.38,SW,225,0.0,0.0,44,0.00,,,0.00,VWS V14.01,2013-08-25 18:36:00,
2013-08-25 14:41:00,81.0,55.1,29.35,SE,135,2.0,2.0,41,0.00,,,0.00,VWS V14.01,2013-08-25 18:41:00,
2013-08-25 14:46:00,81.1,55.9,29.35,SE,135,1.6,1.6,42,0.00,,,0.00,VWS V14.01,2013-08-25 18:46:00,
2013-08-25 14:51:00,81.5,54.9,29.35,SSE,158,2.7,2.7,40,0.00,,,0.00,VWS V14.01,2013-08-25 18:51:00,
2013-08-25 14:56:00,81.5,55.5,29.35,East,90,0.0,0.0,41,0.00,,,0.00,VWS V14.01,2013-08-25 18:56:00,
2013-08-25 15:01:00,81.5,52.7,29.35,SSW,202,0.0,1.1,37,0.00,,,0.00,VWS V14.01,2013-08-25 19:01:00,
2013-08-25 15:06:00,81.7,52.2,29.35,South,180,2.5,2.5,36,0.00,,,0.00,VWS V14.01,2013-08-25 19:06:00,
2013-08-25 15:11:00,81.5,54.9,29.35,NNW,338,2.5,2.5,40,0.00,,,0.00,VWS V14.01,2013-08-25 19:11:00,
2013-08-25 15:16:00,81.9,55.2,29.35,WSW,248,0.0,1.3,40,0.00,,,0.00,VWS V14.01,2013-08-25 19:16:00,
2013-08-25 15:21:00,82.0,52.5,29.35,South,180,1.1,1.1,36,0.00,,,0.00,VWS V14.01,2013-08-25 19:21:00,
2013-08-25 15:26:00,82.0,52.5,29.35,South,180,1.6,2.2,36,0.00,,,0.00,VWS V14.01,2013-08-25 19:26:00,
2013-08-25 15:31:00,82.4,52.8,29.35,SSW,202,0.0,0.0,36,0.00,,,0.00,VWS V14.01,2013-08-25 19:31:00,
2013-08-25 15:36:00,82.4,55.7,29.35,NW,315,0.0,0.0,40,0.00,,,0.00,VWS V14.01,2013-08-25 19:36:00,
2013-08-25 15:41:00,82.2,55.5,29.35,NW,315,1.6,1.6,40,0.00,,,0.00,VWS V14.01,2013-08-25 19:41:00,
2013-08-25 15:46:00,82.4,52.8,29.35,WNW,292,2.5,3.4,36,0.00,,,0.00,VWS V14.01,2013-08-25 19:46:00,
2013-08-25 15:51:00,82.2,55.5,29.35,WNW,292,2.2,2.5,40,0.00,,,0.00,VWS V14.01,2013-08-25 19:51:00,
2013-08-25 15:56:00,82.2,55.5,29.35,West,270,1.3,1.3,40,0.00,,,0.00,VWS V14.01,2013-08-25 19:56:00,
2013-08-25 16:01:00,82.6,55.1,29.35,NW,315,0.9,1.3,39,0.00,,,0.00,VWS V14.01,2013-08-25 20:01:00,
2013-08-25 16:06:00,82.8,55.3,29.35,West,270,0.0,0.0,39,0.00,,,0.00,VWS V14.01,2013-08-25 20:06:00,
2013-08-25 16:11:00,82.9,51.7,29.38,SW,225,1.1,1.1,34,0.00,,,0.00,VWS V14.01,2013-08-25 20:11:00,
2013-08-25 16:16:00,83.3,50.4,29.38,SW,225,1.3,1.3,32,0.00,,,0.00,VWS V14.01,2013-08-25 20:16:00,
2013-08-25 16:21:00,83.3,51.2,29.38,WNW,292,2.0,2.0,33,0.00,,,0.00,VWS V14.01,2013-08-25 20:21:00,
2013-08-25 16:26:00,82.9,54.8,29.35,NW,315,3.1,3.6,38,0.00,,,0.00,VWS V14.01,2013-08-25 20:26:00,
2013-08-25 16:31:00,82.8,54.6,29.35,WNW,292,2.7,3.1,38,0.00,,,0.00,VWS V14.01,2013-08-25 20:31:00,
2013-08-25 16:36:00,82.9,54.0,29.35,SW,225,1.1,1.1,37,0.00,,,0.00,VWS V14.01,2013-08-25 20:36:00,
2013-08-25 16:41:00,83.3,52.0,29.35,WSW,248,2.0,2.5,34,0.00,,,0.00,VWS V14.01,2013-08-25 20:41:00,
2013-08-25 16:46:00,83.1,54.2,29.35,East,90,0.0,0.0,37,0.00,,,0.00,VWS V14.01,2013-08-25 20:46:00,
2013-08-25 16:51:00,83.3,52.8,29.35,West,270,1.3,2.0,35,0.00,,,0.00,VWS V14.01,2013-08-25 20:51:00,
2013-08-25 16:56:00,83.1,54.9,29.35,WNW,292,2.9,2.9,38,0.00,,,0.00,VWS V14.01,2013-08-25 20:56:00,
2013-08-25 17:01:00,83.1,52.7,29.35,West,270,2.5,2.7,35,0.00,,,0.00,VWS V14.01,2013-08-25 21:01:00,
2013-08-25 17:06:00,82.9,54.8,29.35,East,90,0.0,0.0,38,0.00,,,0.00,VWS V14.01,2013-08-25 21:06:00,
2013-08-25 17:11:00,83.1,54.2,29.35,WNW,292,2.7,2.9,37,0.00,,,0.00,VWS V14.01,2013-08-25 21:11:00,
2013-08-25 17:16:00,82.9,55.5,29.35,NW,315,2.2,2.5,39,0.00,,,0.00,VWS V14.01,2013-08-25 21:16:00,
2013-08-25 17:20:00,83.1,54.9,29.35,West,270,0.9,1.3,38,0.00,,,0.00,VWS V14.01,2013-08-25 21:20:00,
2013-08-25 17:25:00,83.3,52.8,29.35,SSW,202,1.3,1.3,35,0.00,,,0.00,VWS V14.01,2013-08-25 21:25:00,
2013-08-25 17:30:00,83.5,53.8,29.35,WSW,248,2.0,2.0,36,0.00,,,0.00,VWS V14.01,2013-08-25 21:30:00,
2013-08-25 17:35:00,83.5,53.0,29.35,SW,225,1.6,1.6,35,0.00,,,0.00,VWS V14.01,2013-08-25 21:35:00,
2013-08-25 17:40:00,83.3,54.3,29.35,NW,315,1.6,2.2,37,0.00,,,0.00,VWS V14.01,2013-08-25 21:40:00,
2013-08-25 17:45:00,83.3,55.1,29.35,WNW,292,2.5,2.5,38,0.00,,,0.00,VWS V14.01,2013-08-25 21:45:00,
2013-08-25 17:50:00,83.3,54.3,29.35,WNW,292,1.6,2.5,37,0.00,,,0.00,VWS V14.01,2013-08-25 21:50:00,
2013-08-25 17:55:00,83.3,54.3,29.35,SE,135,0.0,1.1,37,0.00,,,0.00,VWS V14.01,2013-08-25 21:55:00,
2013-08-25 18:00:00,83.5,54.5,29.35,WNW,292,1.1,2.2,37,0.00,,,0.00,VWS V14.01,2013-08-25 22:00:00,
2013-08-25 18:05:00,83.3,54.3,29.35,West,270,0.9,1.1,37,0.00,,,0.00,VWS V14.01,2013-08-25 22:05:00,
2013-08-25 18:10:00,83.5,52.2,29.35,SW,225,0.9,1.1,34,0.00,,,0.00,VWS V14.01,2013-08-25 22:10:00,
2013-08-25 18:15:00,83.7,54.7,29.35,WNW,292,1.3,2.0,37,0.00,,,0.00,VWS V14.01,2013-08-25 22:15:00,
2013-08-25 18:20:00,83.5,54.5,29.35,NNW,338,0.0,0.0,37,0.00,,,0.00,VWS V14.01,2013-08-25 22:20:00,
2013-08-25 18:25:00,83.7,56.1,29.35,WSW,248,0.9,0.9,39,0.00,,,0.00,VWS V14.01,2013-08-25 22:25:00,
2013-08-25 18:30:00,83.1,56.3,29.35,West,270,0.0,0.0,40,0.00,,,0.00,VWS V14.01,2013-08-25 22:30:00,
2013-08-25 18:35:00,82.9,56.8,29.35,WSW,248,0.0,0.0,41,0.00,,,0.00,VWS V14.01,2013-08-25 22:35:00,
2013-08-25 18:40:00,82.8,56.7,29.35,WSW,248,0.0,0.0,41,0.00,,,0.00,VWS V14.01,2013-08-25 22:40:00,
2013-08-25 18:45:00,83.1,57.0,29.35,SW,225,0.0,0.0,41,0.00,,,0.00,VWS V14.01,2013-08-25 22:45:00,
2013-08-25 18:50:00,82.8,57.3,29.35,West,270,0.0,0.0,42,0.00,,,0.00,VWS V14.01,2013-08-25 22:50:00,
2013-08-25 18:55:00,83.1,57.7,29.35,NW,315,0.0,0.9,42,0.00,,,0.00,VWS V14.01,2013-08-25 22:55:00,
2013-08-25 19:00:00,83.3,57.8,29.35,NW,315,0.0,0.0,42,0.00,,,0.00,VWS V14.01,2013-08-25 23:00:00,
2013-08-25 19:05:00,83.1,58.3,29.35,WSW,248,0.0,0.0,43,0.00,,,0.00,VWS V14.01,2013-08-25 23:05:00,
2013-08-25 19:10:00,82.9,57.5,29.35,NNW,338,0.0,0.0,42,0.00,,,0.00,VWS V14.01,2013-08-25 23:10:00,
2013-08-25 19:15:00,82.8,58.0,29.35,NW,315,0.0,0.0,43,0.00,,,0.00,VWS V14.01,2013-08-25 23:15:00,
2013-08-25 19:20:00,82.4,58.3,29.35,NW,315,0.0,0.0,44,0.00,,,0.00,VWS V14.01,2013-08-25 23:20:00,
2013-08-25 19:25:00,82.0,59.2,29.35,NW,315,0.0,0.0,46,0.00,,,0.00,VWS V14.01,2013-08-25 23:25:00,
2013-08-25 19:30:00,81.7,58.9,29.35,NW,315,0.0,0.9,46,0.00,,,0.00,VWS V14.01,2013-08-25 23:30:00,
2013-08-25 19:35:00,81.3,58.6,29.35,WNW,292,0.0,0.0,46,0.00,,,0.00,VWS V14.01,2013-08-25 23:35:00,
2013-08-25 19:40:00,80.8,58.7,29.35,NW,315,0.0,0.9,47,0.00,,,0.00,VWS V14.01,2013-08-25 23:40:00,
2013-08-25 19:45:00,80.4,59.0,29.35,WNW,292,1.1,1.3,48,0.00,,,0.00,VWS V14.01,2013-08-25 23:45:00,
2013-08-25 19:50:00,79.7,58.3,29.35,West,270,0.0,0.0,48,0.00,,,0.00,VWS V14.01,2013-08-25 23:50:00,
2013-08-25 19:55:00,79.2,57.8,29.35,WSW,248,0.0,0.0,48,0.00,,,0.00,VWS V14.01,2013-08-25 23:55:00,
2013-08-25 20:00:00,79.3,58.0,29.35,NNW,338,0.0,0.0,48,0.00,,,0.00,VWS V14.01,2013-08-26 00:00:00,
2013-08-25 20:05:00,79.0,57.6,29.35,WNW,292,1.1,1.1,48,0.00,,,0.00,VWS V14.01,2013-08-26 00:05:00,
2013-08-25 20:10:00,78.4,57.7,29.35,WNW,292,0.0,0.0,49,0.00,,,0.00,VWS V14.01,2013-08-26 00:10:00,
2013-08-25 20:15:00,77.9,57.8,29.35,WNW,292,0.0,0.0,50,0.00,,,0.00,VWS V14.01,2013-08-26 00:15:00,
2013-08-25 20:20:00,77.4,57.8,29.35,West,270,0.0,0.0,51,0.00,,,0.00,VWS V14.01,2013-08-26 00:20:00,
2013-08-25 20:25:00,76.8,57.9,29.35,WSW,248,0.0,0.0,52,0.00,,,0.00,VWS V14.01,2013-08-26 00:25:00,
2013-08-25 20:30:00,76.3,57.4,29.35,West,270,0.0,0.0,52,0.00,,,0.00,VWS V14.01,2013-08-26 00:30:00,
2013-08-25 20:35:00,76.6,57.2,29.35,NW,315,0.0,0.0,51,0.00,,,0.00,VWS V14.01,2013-08-26 00:35:00,
2013-08-25 20:40:00,76.5,57.0,29.35,NW,315,0.0,0.0,51,0.00,,,0.00,VWS V14.01,2013-08-26 00:40:00,
2013-08-25 20:45:00,75.9,56.5,29.35,NW,315,0.0,0.0,51,0.00,,,0.00,VWS V14.01,2013-08-26 00:45:00,
2013-08-25 20:50:00,75.6,56.7,29.35,NW,315,0.0,0.0,52,0.00,,,0.00,VWS V14.01,2013-08-26 00:50:00,
2013-08-25 20:55:00,75.6,56.7,29.35,NW,315,0.0,0.0,52,0.00,,,0.00,VWS V14.01,2013-08-26 00:55:00,
2013-08-25 21:00:00,75.0,57.3,29.35,West,270,0.0,0.0,54,0.00,,,0.00,VWS V14.01,2013-08-26 01:00:00,
2013-08-25 21:05:00,74.8,57.1,29.35,NW,315,0.0,0.0,54,0.00,,,0.00,VWS V14.01,2013-08-26 01:05:00,
2013-08-25 21:10:00,74.7,56.9,29.35,NW,315,0.0,0.0,54,0.00,,,0.00,VWS V14.01,2013-08-26 01:10:00,
2013-08-25 21:15:00,73.8,56.6,29.35,West,270,0.0,0.0,55,0.00,,,0.00,VWS V14.01,2013-08-26 01:15:00,
2013-08-25 21:20:00,73.9,56.8,29.35,West,270,0.0,0.0,55,0.00,,,0.00,VWS V14.01,2013-08-26 01:20:00,
2013-08-25 21:25:00,73.8,57.1,29.35,West,270,0.0,0.0,56,0.00,,,0.00,VWS V14.01,2013-08-26 01:25:00,
2013-08-25 21:30:00,73.2,57.1,29.35,West,270,0.0,0.0,57,0.00,,,0.00,VWS V14.01,2013-08-26 01:30:00,
2013-08-25 21:35:00,73.2,57.6,29.35,WNW,292,0.0,0.0,58,0.00,,,0.00,VWS V14.01,2013-08-26 01:35:00,
2013-08-25 21:40:00,72.3,57.2,29.35,NW,315,0.0,0.9,59,0.00,,,0.00,VWS V14.01,2013-08-26 01:40:00,
2013-08-25 21:45:00,72.7,57.1,29.35,North,0,0.0,0.0,58,0.00,,,0.00,VWS V14.01,2013-08-26 01:45:00,
2013-08-25 21:50:00,72.7,57.5,29.35,North,0,0.0,0.0,59,0.00,,,0.00,VWS V14.01,2013-08-26 01:50:00,
2013-08-25 21:55:00,72.5,57.8,29.35,NW,315,0.0,0.0,60,0.00,,,0.00,VWS V14.01,2013-08-26 01:55:00,
2013-08-25 22:00:00,72.1,57.5,29.35,NW,315,0.0,0.0,60,0.00,,,0.00,VWS V14.01,2013-08-26 02:00:00,
2013-08-25 22:05:00,72.0,57.3,29.35,NW,315,0.0,0.0,60,0.00,,,0.00,VWS V14.01,2013-08-26 02:05:00,
2013-08-25 22:10:00,71.2,57.6,29.35,WNW,292,0.0,0.0,62,0.00,,,0.00,VWS V14.01,2013-08-26 02:10:00,
2013-08-25 22:15:00,71.4,57.7,29.35,WNW,292,0.0,0.0,62,0.00,,,0.00,VWS V14.01,2013-08-26 02:15:00,
2013-08-25 22:20:00,71.1,57.8,29.35,West,270,0.0,0.0,63,0.00,,,0.00,VWS V14.01,2013-08-26 02:20:00,
2013-08-25 22:25:00,70.7,57.5,29.35,West,270,0.0,0.0,63,0.00,,,0.00,VWS V14.01,2013-08-26 02:25:00,
2013-08-25 22:30:00,70.5,57.8,29.35,West,270,0.0,0.0,64,0.00,,,0.00,VWS V14.01,2013-08-26 02:30:00,
2013-08-25 22:35:00,70.5,57.8,29.35,NW,315,0.0,0.0,64,0.00,,,0.00,VWS V14.01,2013-08-26 02:35:00,
2013-08-25 22:40:00,70.3,57.6,29.35,NW,315,0.0,0.0,64,0.00,,,0.00,VWS V14.01,2013-08-26 02:40:00,
2013-08-25 22:45:00,70.2,57.4,29.35,NW,315,0.0,0.0,64,0.00,,,0.00,VWS V14.01,2013-08-26 02:45:00,
2013-08-25 22:50:00,70.0,57.3,29.35,NW,315,0.0,0.0,64,0.00,,,0.00,VWS V14.01,2013-08-26 02:50:00,
2013-08-25 22:55:00,69.8,57.5,29.35,NNW,338,0.0,0.0,65,0.00,,,0.00,VWS V14.01,2013-08-26 02:55:00,
2013-08-25 23:00:00,70.0,57.7,29.35,NNW,338,0.0,0.0,65,0.00,,,0.00,VWS V14.01,2013-08-26 03:00:00,
2013-08-25 23:05:00,70.0,57.7,29.35,NW,315,0.0,0.0,65,0.00,,,0.00,VWS V14.01,2013-08-26 03:05:00,
2013-08-25 23:10:00,69.4,57.6,29.35,SW,225,0.0,0.0,66,0.00,,,0.00,VWS V14.01,2013-08-26 03:10:00,
2013-08-25 23:15:00,69.4,57.6,29.38,West,270,0.0,0.0,66,0.00,,,0.00,VWS V14.01,2013-08-26 03:15:00,
2013-08-25 23:20:00,69.1,57.3,29.38,West,270,0.0,0.0,66,0.00,,,0.00,VWS V14.01,2013-08-26 03:20:00,
2013-08-25 23:25:00,69.3,57.4,29.38,West,270,0.0,0.0,66,0.00,,,0.00,VWS V14.01,2013-08-26 03:25:00,
2013-08-25 23:30:00,69.1,57.7,29.35,West,270,0.0,0.0,67,0.00,,,0.00,VWS V14.01,2013-08-26 03:30:00,
2013-08-25 23:35:00,69.1,57.7,29.35,West,270,0.0,0.0,67,0.00,,,0.00,VWS V14.01,2013-08-26 03:35:00,
2013-08-25 23:40:00,69.3,57.4,29.35,West,270,0.0,0.0,66,0.00,,,0.00,VWS V14.01,2013-08-26 03:40:00,
2013-08-25 23:45:00,68.9,57.5,29.35,West,270,0.0,0.0,67,0.00,,,0.00,VWS V14.01,2013-08-26 03:45:00,
2013-08-25 23:50:00,68.9,57.5,29.35,West,270,0.0,0.0,67,0.00,,,0.00,VWS V14.01,2013-08-26 03:50:00,
2013-08-25 23:55:00,68.5,57.6,29.35,West,270,0.0,0.0,68,0.00,,,0.00,VWS V14.01,2013-08-26 03:55:00,